Simultaneous Nadir Overpasses (SNOs) Predictions

Prediction of SNOs between AQUA and GOES-15 Satellite Orbit:

Table of predicted SNOs for the next 14.0 days since TLE Epoch: 5/30/2020
Index Date Time (AQUA) AQUA Lat,Lon GOES-15 Lat,Lon Distance(km) Time Diff (sec)
1 05/31/2020 21:58:10 0.51,-125.69 0.02,-128.10 273.75 80
2 06/01/2020 10:19:25 0.60,-130.84 0.00,-128.11 310.81 80
3 06/03/2020 10:07:14 -0.04,-127.89 -0.01,-128.07 20.48 80
4 06/05/2020 09:55:03 -0.68,-124.94 -0.01,-128.02 351.18 80
5 06/05/2020 22:16:27 -0.46,-130.12 -0.00,-127.99 242.98 80
6 06/07/2020 22:04:16 0.19,-127.17 0.00,-127.93 87.37 80
7 06/08/2020 10:25:31 0.93,-132.32 0.01,-127.95 496.97 80
8 06/09/2020 21:52:04 0.78,-124.21 0.01,-127.88 417.51 80
9 06/10/2020 10:13:19 0.35,-129.36 0.01,-127.89 167.01 80
10 06/12/2020 10:01:08 -0.30,-126.40 0.01,-127.84 162.93 80
11 06/12/2020 22:22:32 -0.81,-131.59 -0.02,-127.79 432.10 80




NCC Satellite Simultaneous Nadir Overpasses (SNOs) Prediction Service
